Location: ??
(35.5052°N, 139.7262°E)
Time: 02:44:17
(UTC+00:00)

Meteor 2-10 Rocket - Pass Details

Date: 20 June 2021
Orbit: 733 x 885 km, 81.2° (Epoch: 26 July)

Event Time Altitude Azimuth Distance (km) Brightness Sun altitude
Rises 13:09:56 0° 350° (N) 3,189 7.9 -27.1°
Reaches altitude 10° 13:12:17 10° 349° (N) 2,251 6.9 -27.3°
Enters shadow 13:16:56 74° 315° (NW) 766 3.5 -27.7°
